Heron Island Observation History
Time Wind Speed Temp Pressure Rel. Hum Rain
25/01:30pm ESE 11-16 kts n/a n/a n/a n/a
25/01:00pm ESE 10-16 kts n/a n/a n/a n/a
25/12:30pm ESE 9-14 kts n/a n/a n/a n/a
25/12:00pm ESE 9-14 kts n/a n/a n/a n/a
25/11:30am ESE 11-17 kts n/a n/a n/a n/a
25/11:00am ESE 12-18 kts n/a n/a n/a n/a
25/10:30am ESE 13-18 kts n/a n/a n/a n/a
25/10:00am E 12-17 kts n/a n/a n/a n/a
25/09:30am E 13-18 kts n/a n/a n/a n/a
25/09:00am E 13-19 kts n/a n/a n/a n/a
25/08:30am E 13-18 kts n/a n/a n/a n/a
25/08:00am E 14-23 kts n/a n/a n/a n/a
25/07:30am E 11-17 kts n/a n/a n/a n/a
25/07:00am E 13-18 kts n/a n/a n/a n/a
25/06:30am ESE 13-19 kts n/a n/a n/a n/a
25/06:00am E 18-28 kts n/a n/a n/a n/a
25/05:30am ESE 14-21 kts n/a n/a n/a n/a
25/05:00am ESE 12-18 kts n/a n/a n/a n/a
25/04:30am ESE 16-24 kts n/a n/a n/a n/a
25/04:00am ESE 16-25 kts n/a n/a n/a n/a
25/03:30am ESE 14-20 kts n/a n/a n/a n/a
25/03:00am E 14-20 kts n/a n/a n/a n/a
25/02:30am E 9-16 kts n/a n/a n/a n/a
25/02:00am E 12-16 kts n/a n/a n/a n/a
25/01:30am E 11-16 kts n/a n/a n/a n/a
25/01:00am SE 9-13 kts n/a n/a n/a n/a
25/12:30am SSE 7-11 kts n/a n/a n/a n/a
25/12:00am SE 10-13 kts n/a n/a n/a n/a
Time Wind Speed Temp Pressure Rel. Hum Rain
24/11:30pm SE 14-19 kts n/a n/a n/a n/a
24/11:00pm E 8-15 kts n/a n/a n/a n/a
24/10:30pm ESE 8-14 kts n/a n/a n/a n/a
24/10:00pm E 10-17 kts n/a n/a n/a n/a
24/09:30pm E 11-16 kts n/a n/a n/a n/a
24/09:00pm E 9-15 kts n/a n/a n/a n/a
24/08:30pm ESE 9-14 kts n/a n/a n/a n/a
24/08:00pm E 9-12 kts n/a n/a n/a n/a
24/07:30pm E 8-12 kts n/a n/a n/a n/a
24/07:00pm E 10-15 kts n/a n/a n/a n/a
24/06:30pm E 11-16 kts n/a n/a n/a n/a
24/06:00pm E 11-16 kts n/a n/a n/a n/a
24/05:30pm E 12-16 kts n/a n/a n/a n/a
24/05:00pm E 11-16 kts n/a n/a n/a n/a
24/04:30pm SE 14-21 kts n/a n/a n/a n/a
24/04:00pm ESE 12-16 kts n/a n/a n/a n/a
24/03:30pm ESE 12-18 kts n/a n/a n/a n/a
24/03:00pm ESE 11-16 kts n/a n/a n/a n/a
24/02:30pm ESE 13-18 kts n/a n/a n/a n/a
24/02:00pm SSE 12-19 kts n/a n/a n/a n/a
24/01:30pm ESE 10-17 kts n/a n/a n/a n/a
24/01:00pm ESE 12-17 kts n/a n/a n/a n/a
24/12:30pm ESE 12-19 kts n/a n/a n/a n/a
24/12:00pm E 11-17 kts n/a n/a n/a n/a
24/11:30am E 13-20 kts n/a n/a n/a n/a
24/11:00am E 13-21 kts n/a n/a n/a n/a
24/10:30am E 11-16 kts n/a n/a n/a n/a
24/10:00am SE 9-14 kts n/a n/a n/a n/a
24/09:30am SE 8-10 kts n/a n/a n/a n/a
24/09:00am E 11-19 kts n/a n/a n/a n/a
24/08:30am E 15-21 kts n/a n/a n/a n/a
24/08:00am ESE 10-17 kts n/a n/a n/a n/a
24/07:30am ESE 11-17 kts n/a n/a n/a n/a
24/07:00am ESE 11-19 kts n/a n/a n/a n/a
24/06:30am ESE 12-17 kts n/a n/a n/a n/a
24/06:00am ESE 12-19 kts n/a n/a n/a n/a
24/05:30am E 11-16 kts n/a n/a n/a n/a
24/05:00am ESE 11-17 kts n/a n/a n/a n/a
24/04:30am E 11-17 kts n/a n/a n/a n/a
24/04:00am E 12-20 kts n/a n/a n/a n/a
24/03:30am ESE 12-17 kts n/a n/a n/a n/a
24/03:00am ESE 10-17 kts n/a n/a n/a n/a
24/02:30am ESE 12-18 kts n/a n/a n/a n/a
24/02:00am ESE 13-19 kts n/a n/a n/a n/a
24/01:30am ESE 11-18 kts n/a n/a n/a n/a
24/01:00am ESE 12-18 kts n/a n/a n/a n/a
24/12:30am E 11-17 kts n/a n/a n/a n/a
24/12:00am ESE 11-18 kts n/a n/a n/a n/a
Time Wind Speed Temp Pressure Rel. Hum Rain
23/11:30pm ESE 11-16 kts n/a n/a n/a n/a
23/11:00pm ESE 12-18 kts n/a n/a n/a n/a
23/10:30pm ESE 14-20 kts n/a n/a n/a n/a
23/10:00pm E 13-19 kts n/a n/a n/a n/a
23/09:30pm E 13-19 kts n/a n/a n/a n/a
23/09:00pm ESE 13-22 kts n/a n/a n/a n/a
23/08:30pm ESE 15-21 kts n/a n/a n/a n/a
23/08:00pm ESE 13-20 kts n/a n/a n/a n/a
23/07:30pm E 14-20 kts n/a n/a n/a n/a
23/07:00pm E 12-18 kts n/a n/a n/a n/a
23/06:30pm E 13-20 kts n/a n/a n/a n/a
23/06:00pm E 12-19 kts n/a n/a n/a n/a
23/05:30pm E 11-18 kts n/a n/a n/a n/a
23/05:00pm ESE 12-18 kts n/a n/a n/a n/a
23/04:30pm ESE 13-20 kts n/a n/a n/a n/a
23/04:00pm SE 12-18 kts n/a n/a n/a n/a
23/03:30pm ESE 13-19 kts n/a n/a n/a n/a
23/03:00pm SE 15-21 kts n/a n/a n/a n/a
23/02:30pm SE 12-18 kts n/a n/a n/a n/a
23/02:00pm SE 15-21 kts n/a n/a n/a n/a
23/01:30pm SE 12-18 kts n/a n/a n/a n/a
23/01:00pm ESE 12-18 kts n/a n/a n/a n/a
23/12:30pm SE 13-18 kts n/a n/a n/a n/a
23/12:00pm ESE 11-16 kts n/a n/a n/a n/a
23/11:30am SE 12-18 kts n/a n/a n/a n/a
23/11:00am SE 14-18 kts n/a n/a n/a n/a
23/10:30am SE 10-15 kts n/a n/a n/a n/a
23/10:00am SE 11-15 kts n/a n/a n/a n/a
23/09:30am ESE 9-14 kts n/a n/a n/a n/a
23/09:00am ESE 9-14 kts n/a n/a n/a n/a
23/08:30am SE 10-14 kts n/a n/a n/a n/a
23/08:00am ESE 8-16 kts n/a n/a n/a n/a
23/07:30am ESE 8-14 kts n/a n/a n/a n/a
23/07:00am ESE 8-12 kts n/a n/a n/a n/a
23/06:30am SE 8-12 kts n/a n/a n/a n/a
23/06:00am ESE 7-10 kts n/a n/a n/a n/a
23/05:30am ESE 8-11 kts n/a n/a n/a n/a
23/05:00am E 8-10 kts n/a n/a n/a n/a
23/04:30am E 9-11 kts n/a n/a n/a n/a
23/04:00am E 8-12 kts n/a n/a n/a n/a
23/03:30am E 8-12 kts n/a n/a n/a n/a
23/03:00am E 9-14 kts n/a n/a n/a n/a
23/02:30am E 9-13 kts n/a n/a n/a n/a
23/02:00am E 9-14 kts n/a n/a n/a n/a
23/01:30am E 9-12 kts n/a n/a n/a n/a
23/01:00am ESE 9-13 kts n/a n/a n/a n/a
23/12:30am E 9-16 kts n/a n/a n/a n/a
23/12:00am E 10-14 kts n/a n/a n/a n/a